Torna al catalogo

ONEWEB-0617

AttivoComunicazioniPO
NORAD 55158·PAYLOAD·🇬🇧 United Kingdom

Lanciato Jan 10, 2023 da Cape Canaveral Space Force Station

Loading…

Prossimi Passaggi (prossime 24 ore)

TLE

AggiornatoSource: CelesTrak SupGP

Epoca: Sep 14, 2026, 15:52 UTC

1 55158C 23004U   26257.66127732  .00001976  00000+0  55834-2 0  2575
2 55158  87.8974   3.2827 0001763 115.6773 347.5896 13.11415655    13

Traccia ONEWEB-0617 in tempo reale con AllMySat

Download on the App Store